• In Uzbekistan
  • List of Countries
  • For 7 days
  • Water Temperature
  • Satellite Maps
  • Weather Map
  • Weather Widgets
  • user-avatar
    Login

    Hourly Weather Aichach

    Today, 21 July, Saturday

    Time Temperature Precipitation Wind Pressure Humidity
    00:00 +20°C° 0.2 mm 1 mps 718 mmHg 84%
    01:00 +19°C° 0.2 mm 1 mps 718 mmHg 86%
    02:00 +19°C° 0.5 mm 1 mps 718 mmHg 87%
    03:00 +19°C° 0.5 mm 1 mps 718 mmHg 88%
    04:00 +18°C° 0.5 mm 1 mps 718 mmHg 89%
    05:00 +19°C° 0.5 mm 1 mps 718 mmHg 88%
    06:00 +18°C° 0.5 mm 2 mps 718 mmHg 87%
    07:00 +19°C° 0.5 mm 2 mps 718 mmHg 87%
    08:00 +20°C° 0.6 mm 2 mps 718 mmHg 83%
    09:00 +23°C° 0.6 mm 2 mps 718 mmHg 80%
    10:00 +24°C° 0.6 mm 2 mps 718 mmHg 76%
    11:00 +24°C° 1.4 mm 2 mps 718 mmHg 75%
    12:00 +25°C° 1.4 mm 3 mps 718 mmHg 74%
    13:00 +25°C° 1.4 mm 3 mps 718 mmHg 73%
    14:00 +24°C° 1 mm 3 mps 718 mmHg 76%
    15:00 +24°C° 1 mm 3 mps 718 mmHg 78%
    16:00 +24°C° 1 mm 3 mps 718 mmHg 81%
    17:00 +21°C° 1.3 mm 3 mps 718 mmHg 84%
    18:00 +20°C° 1.3 mm 3 mps 718 mmHg 88%
    19:00 +19°C° 1.3 mm 3 mps 718 mmHg 91%
    20:00 +19°C° 0.3 mm 3 mps 719 mmHg 92%
    21:00 +18°C° 0.3 mm 3 mps 719 mmHg 93%
    22:00 +18°C° 0.3 mm 3 mps 719 mmHg 94%
    23:00 +17°C° 0.2 mm 3 mps 719 mmHg 95%

    Tomorrow, 22 July, Sunday

    Time Temperature Precipitation Wind Pressure Humidity
    00:00 +17°C° 0.2 mm 3 mps 719 mmHg 95%
    01:00 +17°C° 0.2 mm 3 mps 719 mmHg 95%
    02:00 +17°C° 0.4 mm 3 mps 719 mmHg 95%
    03:00 +17°C° 0.4 mm 2 mps 719 mmHg 95%
    04:00 +16°C° 0.4 mm 2 mps 719 mmHg 95%
    05:00 +16°C° 0.6 mm 2 mps 719 mmHg 95%
    06:00 +17°C° 0.6 mm 2 mps 719 mmHg 95%
    07:00 +17°C° 0.6 mm 2 mps 719 mmHg 95%
    08:00 +17°C° 0.5 mm 3 mps 719 mmHg 94%
    09:00 +18°C° 0.5 mm 3 mps 719 mmHg 93%
    10:00 +18°C° 0.5 mm 3 mps 719 mmHg 91%
    11:00 +20°C° 0.2 mm 3 mps 719 mmHg 85%
    12:00 +21°C° 0.2 mm 3 mps 719 mmHg 78%
    13:00 +24°C° 0.2 mm 3 mps 719 mmHg 71%
    14:00 +24°C° 0.3 mm 3 mps 719 mmHg 71%
    15:00 +24°C° 0.3 mm 3 mps 719 mmHg 71%
    16:00 +24°C° 0.3 mm 3 mps 718 mmHg 70%
    17:00 +23°C° 0.8 mm 2 mps 718 mmHg 76%
    18:00 +23°C° 0.8 mm 2 mps 718 mmHg 81%
    19:00 +22°C° 0.8 mm 1 mps 718 mmHg 86%
    20:00 +21°C° 0.5 mm 1 mps 719 mmHg 88%
    21:00 +20°C° 0.5 mm 1 mps 719 mmHg 90%
    22:00 +19°C° 0.5 mm 1 mps 719 mmHg 91%
    23:00 +17°C° 0 mm 2 mps 719 mmHg 92%

    Day after tomorrow, 23 July, Monday

    Time Temperature Precipitation Wind Pressure Humidity
    00:00 +17°C° 0 mm 2 mps 719 mmHg 93%
    01:00 +16°C° 0 mm 2 mps 719 mmHg 94%
    02:00 +16°C° 0 mm 2 mps 719 mmHg 95%
    03:00 +16°C° 0 mm 2 mps 719 mmHg 95%
    04:00 +16°C° 0 mm 2 mps 719 mmHg 96%
    05:00 +16°C° 0.1 mm 2 mps 719 mmHg 95%
    06:00 +17°C° 0.1 mm 2 mps 719 mmHg 95%
    07:00 +18°C° 0.1 mm 2 mps 720 mmHg 94%
    08:00 +19°C° 0.3 mm 2 mps 720 mmHg 92%
    09:00 +20°C° 0.3 mm 2 mps 720 mmHg 89%
    10:00 +21°C° 0.3 mm 2 mps 720 mmHg 87%
    11:00 +21°C° 1.1 mm 2 mps 720 mmHg 84%
    12:00 +22°C° 1.1 mm 3 mps 720 mmHg 81%
    13:00 +24°C° 1.1 mm 3 mps 720 mmHg 78%
    14:00 +24°C° 1.2 mm 3 mps 720 mmHg 78%
    15:00 +25°C° 1.2 mm 3 mps 720 mmHg 78%
    16:00 +25°C° 1.2 mm 3 mps 720 mmHg 78%
    17:00 +24°C° 0.7 mm 2 mps 720 mmHg 81%
    18:00 +23°C° 0.7 mm 2 mps 721 mmHg 84%
    19:00 +21°C° 0.7 mm 2 mps 721 mmHg 87%
    20:00 +20°C° 0.1 mm 2 mps 721 mmHg 88%
    21:00 +20°C° 0.1 mm 1 mps 721 mmHg 89%
    22:00 +19°C° 0.1 mm 1 mps 721 mmHg 91%
    23:00 +18°C° 0 mm 1 mps 721 mmHg 91%

    24 July, Tuesday

    Time Temperature Precipitation Wind Pressure Humidity
    00:00 +18°C° 0 mm 1 mps 721 mmHg 92%
    01:00 +18°C° 0 mm 1 mps 721 mmHg 93%
    02:00 +16°C° 0 mm 1 mps 721 mmHg 93%
    03:00 +16°C° 0 mm 1 mps 721 mmHg 94%
    04:00 +16°C° 0 mm 1 mps 720 mmHg 94%
    05:00 +18°C° 0 mm 1 mps 720 mmHg 92%
    06:00 +17°C° 0 mm 0 mps 721 mmHg 91%
    07:00 +18°C° 0 mm 0 mps 721 mmHg 89%
    08:00 +21°C° 0 mm 1 mps 721 mmHg 83%
    09:00 +23°C° 0 mm 1 mps 721 mmHg 76%
    10:00 +25°C° 0 mm 2 mps 720 mmHg 69%
    11:00 +26°C° 0 mm 2 mps 720 mmHg 66%
    12:00 +27°C° 0 mm 2 mps 720 mmHg 62%
    13:00 +28°C° 0 mm 2 mps 720 mmHg 59%
    14:00 +28°C° 0 mm 2 mps 720 mmHg 59%
    15:00 +28°C° 0 mm 3 mps 719 mmHg 59%
    16:00 +28°C° 0 mm 3 mps 719 mmHg 59%
    17:00 +27°C° 0 mm 2 mps 719 mmHg 65%
    18:00 +26°C° 0 mm 2 mps 719 mmHg 70%
    19:00 +25°C° 0 mm 2 mps 719 mmHg 75%
    20:00 +23°C° 0 mm 2 mps 719 mmHg 79%
    21:00 +21°C° 0 mm 2 mps 720 mmHg 82%
    22:00 +19°C° 0 mm 2 mps 720 mmHg 85%
    23:00 +19°C° 0 mm 2 mps 720 mmHg 87%

    25 July, Wednesday

    Time Temperature Precipitation Wind Pressure Humidity
    00:00 +18°C° 0 mm 2 mps 720 mmHg 89%
    01:00 +18°C° 0 mm 1 mps 720 mmHg 91%
    02:00 +18°C° 0 mm 1 mps 720 mmHg 91%
    03:00 +18°C° 0 mm 1 mps 719 mmHg 92%
    04:00 +16°C° 0 mm 1 mps 719 mmHg 93%
    05:00 +18°C° 0 mm 1 mps 720 mmHg 90%
    06:00 +19°C° 0 mm 1 mps 720 mmHg 87%
    07:00 +21°C° 0 mm 1 mps 720 mmHg 84%
    08:00 +22°C° 0 mm 1 mps 720 mmHg 78%
    09:00 +24°C° 0 mm 1 mps 720 mmHg 73%
    10:00 +25°C° 0 mm 2 mps 720 mmHg 67%
    11:00 +26°C° 0 mm 2 mps 720 mmHg 63%
    12:00 +27°C° 0 mm 2 mps 720 mmHg 59%
    13:00 +28°C° 0 mm 2 mps 720 mmHg 55%
    14:00 +28°C° 0 mm 2 mps 720 mmHg 54%
    15:00 +28°C° 0 mm 2 mps 720 mmHg 54%
    16:00 +28°C° 0 mm 1 mps 720 mmHg 53%
    17:00 +27°C° 0 mm 1 mps 720 mmHg 59%
    18:00 +26°C° 0 mm 1 mps 720 mmHg 64%
    19:00 +23°C° 0 mm 0 mps 720 mmHg 69%
    20:00 +24°C° 0 mm 1 mps 720 mmHg 72%
    21:00 +22°C° 0 mm 1 mps 721 mmHg 75%
    22:00 +21°C° 0 mm 1 mps 721 mmHg 78%
    23:00 +20°C° 0 mm 1 mps 721 mmHg 81%

    26 July, Thursday

    Time Temperature Precipitation Wind Pressure Humidity
    00:00 +20°C° 0 mm 1 mps 721 mmHg 83%
    01:00 +19°C° 0 mm 1 mps 721 mmHg 85%
    02:00 +19°C° 0 mm 1 mps 721 mmHg 87%
    03:00 +19°C° 0 mm 1 mps 721 mmHg 88%
    04:00 +17°C° 0 mm 2 mps 721 mmHg 90%
    05:00 +18°C° 0 mm 2 mps 721 mmHg 88%
    06:00 +19°C° 0 mm 2 mps 721 mmHg 86%
    07:00 +20°C° 0 mm 2 mps 722 mmHg 84%
    08:00 +23°C° 0.3 mm 2 mps 722 mmHg 80%
    09:00 +24°C° 0.3 mm 1 mps 722 mmHg 76%
    10:00 +26°C° 0.3 mm 1 mps 722 mmHg 72%
    11:00 +27°C° 0.2 mm 1 mps 722 mmHg 66%
    12:00 +28°C° 0.2 mm 1 mps 722 mmHg 60%
    13:00 +28°C° 0.2 mm 0 mps 722 mmHg 53%
    14:00 +29°C° 0 mm 1 mps 721 mmHg 54%
    15:00 +29°C° 0 mm 1 mps 721 mmHg 54%
    16:00 +29°C° 0 mm 1 mps 721 mmHg 54%
    17:00 +28°C° 0 mm 1 mps 721 mmHg 59%
    18:00 +27°C° 0 mm 1 mps 721 mmHg 65%
    19:00 +26°C° 0 mm 1 mps 721 mmHg 70%
    20:00 +25°C° 0 mm 1 mps 721 mmHg 73%
    21:00 +23°C° 0 mm 1 mps 721 mmHg 76%
    22:00 +22°C° 0 mm 1 mps 722 mmHg 79%
    23:00 +21°C° 0 mm 1 mps 721 mmHg 81%
    Show more